Dodge Center, MN

3:31 PM CST on December 06, 2019 (GMT -0600)
Dodge Center

Weather History for KTOB - November, 2019

Change the Weather History Date:

Thursday, November 14, 2019

  Actual Average (WUND) Record (WUND)
Temperature  
Mean Temperature 24 °F -  
Max Temperature 26 °F - - (-1)
Min Temperature 21 °F - - (-1)
Degree Days  
Heating Degree Days 42    
Moisture  
Dew Point 17 °F    
Average Humidity 75    
Maximum Humidity 80    
Minimum Humidity 64    
Precipitation  
Precipitation 0.00 in - - ()
Sea Level Pressure  
Sea Level Pressure 30.18 in    
Wind  
Wind Speed 7 mph ()    
Max Wind Speed 14 mph    
Max Gust Speed 18 mph    
Visibility 10.0 miles    
Events      
Averages and records for this station are not official NWS values.
T = Trace of Precipitation, MM = Missing Value Source: Averaged Metar Reports

Daily Weather History Graph

Daily Weather History Graph

Search for Another Location

Airport or City:

Astronomy

Nov. 14, 2019 Rise Set
Actual Time 7:04 AM CST 4:46 PM CST
Civil Twilight 6:33 AM CST 5:17 PM CST
Nautical Twilight 5:58 AM CST 5:52 PM CST
Astronomical Twilight 5:24 AM CST 6:26 PM CST
Moon 6:29 PM CST (11/14) 9:03 AM CST (11/14)
Length of Visible Light 10h 43m
Length of Day
9h 41m
Waning Gibbous, 95% of the Moon is Illuminated
Nov 14
Waning Gibbous
Nov 19
Last Quarter
Nov 26
New
Dec 4
First Quarter
Dec 11
Full

Hourly Weather History & Observations

Time (CST) Temp. Windchill Dew Point Humidity Pressure Visibility Wind Dir Wind Speed Gust Speed Precip Events Conditions
12:17 AM 24.8 °F 16.1 °F 17.6 °F 74% 30.06 in 10.0 mi NNW 8.1 mph - N/A   Overcast
12:36 AM 24.8 °F 17.9 °F 17.6 °F 74% 30.07 in 10.0 mi North 5.8 mph - N/A   Overcast
12:55 AM 24.8 °F 17.9 °F 17.6 °F 74% 30.07 in 10.0 mi North 5.8 mph - N/A   Overcast
12:56 AM 24.8 °F 20.5 °F 17.6 °F 74% 30.07 in 10.0 mi North 3.5 mph - N/A   Overcast
1:15 AM 24.8 °F - 17.6 °F 74% 30.08 in 10.0 mi Calm Calm - N/A   Overcast
1:19 AM 24.8 °F 16.9 °F 17.6 °F 74% 30.08 in 10.0 mi North 6.9 mph - N/A   Overcast
1:37 AM 24.8 °F - 17.6 °F 74% 30.08 in 10.0 mi Calm Calm - N/A   Overcast
1:56 AM 24.8 °F - 17.6 °F 74% 30.09 in 10.0 mi Calm Calm - N/A   Overcast
2:15 AM 24.8 °F - 17.6 °F 74% 30.09 in 10.0 mi Calm Calm - N/A   Overcast
2:16 AM 24.8 °F - 17.6 °F 74% 30.09 in 10.0 mi Calm Calm - N/A   Overcast
2:35 AM 24.8 °F - 17.6 °F 74% 30.10 in 10.0 mi Calm Calm - N/A   Overcast
2:36 AM 24.8 °F - 17.6 °F 74% 30.10 in 10.0 mi Calm Calm - N/A   Overcast
2:58 AM 24.8 °F - 17.6 °F 74% 30.10 in 10.0 mi Calm Calm - N/A   Overcast
3:16 AM 24.8 °F - 17.6 °F 74% 30.11 in 10.0 mi Calm Calm - N/A   Overcast
3:36 AM 24.8 °F - 17.6 °F 74% 30.11 in 10.0 mi Calm Calm - N/A   Overcast
3:55 AM 24.8 °F 16.1 °F 17.6 °F 74% 30.12 in 10.0 mi North 8.1 mph - N/A   Overcast
3:56 AM 24.8 °F 16.1 °F 17.6 °F 74% 30.12 in 10.0 mi North 8.1 mph - N/A   Overcast
4:18 AM 24.8 °F 16.1 °F 17.6 °F 74% 30.12 in 10.0 mi North 8.1 mph - N/A   Overcast
4:36 AM 24.8 °F 16.9 °F 17.6 °F 74% 30.13 in 10.0 mi North 6.9 mph - N/A   Overcast
4:56 AM 24.8 °F 16.1 °F 17.6 °F 74% 30.14 in 10.0 mi NNW 8.1 mph - N/A   Overcast
5:15 AM 24.8 °F 16.9 °F 17.6 °F 74% 30.14 in 10.0 mi North 6.9 mph - N/A   Overcast
5:16 AM 24.8 °F 16.9 °F 17.6 °F 74% 30.14 in 10.0 mi North 6.9 mph - N/A   Overcast
5:35 AM 24.8 °F 17.9 °F 17.6 °F 74% 30.15 in 10.0 mi NNW 5.8 mph - N/A   Overcast
5:39 AM 24.8 °F 16.1 °F 17.6 °F 74% 30.15 in 10.0 mi NNW 8.1 mph - N/A   Overcast
5:58 AM 24.8 °F 17.9 °F 17.6 °F 74% 30.16 in 10.0 mi NW 5.8 mph - N/A   Overcast
6:15 AM 24.8 °F 15.3 °F 17.6 °F 74% 30.16 in 10.0 mi NW 9.2 mph - N/A   Overcast
6:35 AM 23.0 °F - 17.6 °F 80% 30.16 in 10.0 mi Calm Calm - N/A   Overcast
6:36 AM 23.0 °F - 17.6 °F 80% 30.17 in 10.0 mi Calm Calm - N/A   Overcast
6:55 AM 23.0 °F 14.7 °F 15.8 °F 74% 30.18 in 10.0 mi NW 6.9 mph - N/A   Overcast
6:56 AM 23.0 °F 14.7 °F 15.8 °F 74% 30.18 in 10.0 mi NW 6.9 mph - N/A   Overcast
7:18 AM 23.0 °F 14.7 °F 17.6 °F 80% 30.19 in 10.0 mi NW 6.9 mph - N/A   Overcast
7:37 AM 23.0 °F 13.1 °F 15.8 °F 74% 30.19 in 10.0 mi WNW 9.2 mph - N/A   Overcast
7:56 AM 23.0 °F 17.0 °F 17.6 °F 80% 30.21 in 10.0 mi WNW 4.6 mph - N/A   Overcast
8:15 AM 21.2 °F 10.1 °F 15.8 °F 80% 30.22 in 10.0 mi NW 10.4 mph - N/A   Overcast
8:16 AM 21.2 °F 10.9 °F 15.8 °F 80% 30.22 in 10.0 mi NW 9.2 mph - N/A   Overcast
8:35 AM 21.2 °F 10.9 °F 15.8 °F 80% 30.22 in 10.0 mi West 9.2 mph - N/A   Overcast
8:40 AM 21.2 °F 11.7 °F 15.8 °F 80% 30.22 in 10.0 mi West 8.1 mph - N/A   Overcast
8:57 AM 21.2 °F 10.1 °F 15.8 °F 80% 30.23 in 10.0 mi West 10.4 mph - N/A   Overcast
9:15 AM 21.2 °F 13.6 °F 15.8 °F 80% 30.22 in 10.0 mi NW 5.8 mph - N/A   Overcast
9:35 AM 21.2 °F 11.7 °F 15.8 °F 80% 30.22 in 10.0 mi WNW 8.1 mph - N/A   Overcast
9:36 AM 21.2 °F 12.6 °F 15.8 °F 80% 30.22 in 10.0 mi WNW 6.9 mph - N/A   Overcast
9:55 AM 21.2 °F 11.7 °F 15.8 °F 80% 30.23 in 10.0 mi West 8.1 mph - N/A   Overcast
9:56 AM 21.2 °F 11.7 °F 15.8 °F 80% 30.23 in 10.0 mi West 8.1 mph - N/A   Overcast
10:18 AM 21.2 °F 10.1 °F 15.8 °F 80% 30.24 in 10.0 mi WNW 10.4 mph - N/A   Overcast
10:36 AM 23.0 °F 12.4 °F 15.8 °F 74% 30.25 in 10.0 mi West 10.4 mph - N/A   Overcast
10:56 AM 21.2 °F 9.5 °F 15.8 °F 80% 30.25 in 10.0 mi West 11.5 mph 17.3 mph N/A   Overcast
11:15 AM 21.2 °F 9.5 °F 15.8 °F 80% 30.25 in 10.0 mi West 11.5 mph - N/A   Overcast
11:16 AM 21.2 °F 9.5 °F 15.8 °F 80% 30.25 in 10.0 mi West 11.5 mph - N/A   Overcast
11:35 AM 21.2 °F 11.7 °F 15.8 °F 80% 30.23 in 10.0 mi WSW 8.1 mph - N/A   Mostly Cloudy
11:39 AM 23.0 °F 13.1 °F 15.8 °F 74% 30.23 in 10.0 mi WSW 9.2 mph - N/A   Overcast
11:57 AM 23.0 °F 11.7 °F 15.8 °F 74% 30.22 in 10.0 mi WSW 11.5 mph - N/A   Scattered Clouds
12:15 PM 24.8 °F 14.0 °F 15.8 °F 69% 30.22 in 10.0 mi WSW 11.5 mph - N/A   Scattered Clouds
12:16 PM 24.8 °F 14.6 °F 15.8 °F 69% 30.22 in 10.0 mi WSW 10.4 mph - N/A   Scattered Clouds
12:36 PM 24.8 °F 14.6 °F 15.8 °F 69% 30.22 in 10.0 mi West 10.4 mph - N/A   Clear
12:59 PM 24.8 °F 12.9 °F 15.8 °F 69% 30.22 in 10.0 mi West 13.8 mph - N/A   Clear
1:16 PM 24.8 °F 12.9 °F 15.8 °F 69% 30.23 in 10.0 mi West 13.8 mph - N/A   Clear
1:36 PM 26.6 °F 15.2 °F 15.8 °F 64% 30.22 in 10.0 mi West 13.8 mph 17.3 mph N/A   Clear
1:55 PM 26.6 °F 15.2 °F 15.8 °F 64% 30.22 in 10.0 mi WSW 13.8 mph - N/A   Clear
1:56 PM 26.6 °F 15.2 °F 15.8 °F 64% 30.22 in 10.0 mi WSW 13.8 mph - N/A   Clear
2:15 PM 26.6 °F 15.7 °F 15.8 °F 64% 30.21 in 10.0 mi WSW 12.7 mph 18.4 mph N/A   Clear
2:19 PM 26.6 °F 15.2 °F 15.8 °F 64% 30.21 in 10.0 mi West 13.8 mph 18.4 mph N/A   Clear
2:38 PM 26.6 °F 15.7 °F 17.6 °F 69% 30.21 in 10.0 mi WSW 12.7 mph - N/A   Clear
2:55 PM 26.6 °F 15.2 °F 17.6 °F 69% 30.21 in 10.0 mi WSW 13.8 mph - N/A   Clear
3:16 PM 26.6 °F 15.7 °F 17.6 °F 69% 30.21 in 10.0 mi WSW 12.7 mph - N/A   Clear
3:35 PM 26.6 °F 16.2 °F 17.6 °F 69% 30.22 in 10.0 mi WSW 11.5 mph - N/A   Clear
3:57 PM 26.6 °F 16.8 °F 17.6 °F 69% 30.21 in 10.0 mi SW 10.4 mph - N/A   Clear
4:15 PM 26.6 °F 15.7 °F 17.6 °F 69% 30.21 in 10.0 mi SW 12.7 mph - N/A   Clear
4:35 PM 24.8 °F 15.3 °F 17.6 °F 74% 30.20 in 10.0 mi SW 9.2 mph - N/A   Clear
4:36 PM 24.8 °F 14.6 °F 17.6 °F 74% 30.20 in 10.0 mi SW 10.4 mph - N/A   Clear
4:55 PM 24.8 °F 15.3 °F 17.6 °F 74% 30.19 in 10.0 mi SSW 9.2 mph - N/A   Clear
4:56 PM 24.8 °F 15.3 °F 17.6 °F 74% 30.19 in 10.0 mi SSW 9.2 mph - N/A   Clear
5:19 PM 24.8 °F 14.0 °F 17.6 °F 74% 30.18 in 10.0 mi SSW 11.5 mph - N/A   Clear
5:36 PM 24.8 °F 14.6 °F 17.6 °F 74% 30.18 in 10.0 mi SSW 10.4 mph - N/A   Clear
5:56 PM 23.0 °F 13.1 °F 17.6 °F 80% 30.19 in 10.0 mi SW 9.2 mph - N/A   Clear
6:15 PM 23.0 °F 13.9 °F 17.6 °F 80% 30.18 in 10.0 mi SSW 8.1 mph - N/A   Clear
6:16 PM 23.0 °F 13.9 °F 17.6 °F 80% 30.18 in 10.0 mi SSW 8.1 mph - N/A   Clear
6:35 PM 23.0 °F 13.1 °F 17.6 °F 80% 30.18 in 10.0 mi SW 9.2 mph - N/A   Clear
6:39 PM 23.0 °F 12.4 °F 17.6 °F 80% 30.18 in 10.0 mi SW 10.4 mph - N/A   Clear
6:58 PM 24.8 °F 14.0 °F 19.4 °F 80% 30.18 in 10.0 mi SW 11.5 mph - N/A   Clear
7:15 PM 24.8 °F 14.0 °F 19.4 °F 80% 30.18 in 10.0 mi SW 11.5 mph - N/A   Clear
7:35 PM 24.8 °F 14.0 °F 19.4 °F 80% 30.18 in 10.0 mi SW 11.5 mph - N/A   Clear
7:36 PM 24.8 °F 14.0 °F 19.4 °F 80% 30.18 in 10.0 mi SW 11.5 mph - N/A   Clear
7:55 PM 24.8 °F 14.0 °F 19.4 °F 80% 30.18 in 10.0 mi SW 11.5 mph - N/A   Clear
7:56 PM 24.8 °F 14.0 °F 17.6 °F 74% 30.18 in 10.0 mi SW 11.5 mph - N/A   Clear
8:18 PM 26.6 °F 15.7 °F 19.4 °F 74% 30.18 in 10.0 mi SW 12.7 mph - N/A   Clear
8:36 PM 26.6 °F 16.2 °F 17.6 °F 69% 30.18 in 10.0 mi SW 11.5 mph - N/A   Clear
8:56 PM 26.6 °F 16.2 °F 19.4 °F 74% 30.18 in 10.0 mi SW 11.5 mph - N/A   Clear
9:15 PM 26.6 °F 16.2 °F 19.4 °F 74% 30.18 in 10.0 mi SW 11.5 mph - N/A   Clear
9:16 PM 26.6 °F 16.2 °F 19.4 °F 74% 30.18 in 10.0 mi SW 11.5 mph - N/A   Clear
9:35 PM 26.6 °F 18.2 °F 19.4 °F 74% 30.18 in 10.0 mi SW 8.1 mph - N/A   Clear
9:39 PM 26.6 °F 17.5 °F 19.4 °F 74% 30.19 in 10.0 mi SW 9.2 mph - N/A   Clear
9:57 PM 26.6 °F 18.2 °F 19.4 °F 74% 30.19 in 10.0 mi WSW 8.1 mph - N/A   Clear
10:15 PM 26.6 °F 18.2 °F 19.4 °F 74% 30.19 in 10.0 mi SW 8.1 mph - N/A   Clear
10:35 PM 26.6 °F 16.8 °F 19.4 °F 74% 30.19 in 10.0 mi WSW 10.4 mph - N/A   Clear
10:36 PM 26.6 °F 16.8 °F 19.4 °F 74% 30.19 in 10.0 mi WSW 10.4 mph - N/A   Clear
10:55 PM 26.6 °F 17.5 °F 19.4 °F 74% 30.19 in 10.0 mi WSW 9.2 mph - N/A   Clear
10:56 PM 26.6 °F 17.5 °F 19.4 °F 74% 30.19 in 10.0 mi WSW 9.2 mph - N/A   Clear
11:18 PM 26.6 °F 17.5 °F 21.2 °F 80% 30.20 in 10.0 mi WSW 9.2 mph - N/A   Clear
11:36 PM 26.6 °F 17.5 °F 21.2 °F 80% 30.21 in 10.0 mi WSW 9.2 mph - N/A   Clear
11:55 PM 26.6 °F 16.8 °F 21.2 °F 80% 30.21 in 10.0 mi WSW 10.4 mph - N/A   Clear